Spring River (Missouri), Waco (07186000)

StateMissouriLatestLow (282 cfs)
RiverSpring RiverRatingObservedEstimated
Updated2020-08-07 12:30 (1 hour ago)Flood - The river is flooding. Obstacles can be treacherous or deadly. The river should be avoided at this stage for casual trips and definitely for the inexperienced. Trips should be attempted only with protective gear and equipment.Flood(none)4293
Discharge282 cfs (median: 161 cfs)High - The river is high and potentially dangerous, especially for the young and / or inexperienced. Normal stream obstacles are sometimes difficult to navigate. Extended distances can be attempted, but canoe travel may not be advisable.High(none)573
Height2.12 feetGood - Conditions are ideal for a canoe or kayak. Boats typically will drag on fewer than one-quarter of riffles, if at all, and portages are unnecessary or rare. Normal float lengths can be attempted without a problem.Good(none)523
TrendFalling (rising over 24 hours)Low - River is low but can still be floated. Some riffles are okay but most come with significant dragging and might need a portage. Float lengths should be reduced to accommodate low flow, dragging, and portages.Low(none)263
USGSExternal icon USGS Site (External icon Google Maps)Poor - River is too low to float comfortably. Most or all riffles will drag or must be portaged and some obstacles (such as slick shelf rock) cause undue problems. Avoid the river at this stage for casual paddling trips.Poor(none)49

Trending Data

Plot Image

Trips for Spring River (Missouri), Waco (07186000)

DateStartEndDistanceConditionDischargeHeightFishingDetails

A total of 0 rows are displayed.

Condition Descriptions

Fishing Conditions

Fish Species

Notes

Classic Trip List

The classic River Trips application is still available for use. It is updated with the new system using a data retrofit. It is no longer maintained. The original River Trips application is no longer updated (as of 1 Dec 2016) but can be checked for errors or for the condition of the data before it was converted to the new system.

Gauge Data Table

ObservationHeightDischargeMaximum
Discharge
Minimum
Discharge
Mean
Discharge
P05P10P20P25P50
(Median)
P75P80P90P95
2020-08-07 12:30 2.12 282 12300 (1927) 10 (1954) 552 36 51 71 83 161 306 358 950 2040
2020-08-07 11:30 2.20 315 12300 (1927) 10 (1954) 552 36 51 71 83 161 306 358 950 2040
2020-08-07 10:30 2.15 294 12300 (1927) 10 (1954) 552 36 51 71 83 161 306 358 950 2040
2020-08-07 09:30 2.16 299 12300 (1927) 10 (1954) 552 36 51 71 83 161 306 358 950 2040
2020-08-07 08:30 2.15 294 12300 (1927) 10 (1954) 552 36 51 71 83 161 306 358 950 2040
2020-08-07 07:30 2.13 286 12300 (1927) 10 (1954) 552 36 51 71 83 161 306 358 950 2040
2020-08-07 06:30 2.10 275 12300 (1927) 10 (1954) 552 36 51 71 83 161 306 358 950 2040
2020-08-07 05:30 2.09 271 12300 (1927) 10 (1954) 552 36 51 71 83 161 306 358 950 2040
2020-08-07 04:30 2.08 267 12300 (1927) 10 (1954) 552 36 51 71 83 161 306 358 950 2040
2020-08-07 03:30 2.09 271 12300 (1927) 10 (1954) 552 36 51 71 83 161 306 358 950 2040
2020-08-07 02:30 2.10 275 12300 (1927) 10 (1954) 552 36 51 71 83 161 306 358 950 2040
2020-08-07 01:30 2.10 275 12300 (1927) 10 (1954) 552 36 51 71 83 161 306 358 950 2040
2020-08-07 00:30 2.11 278 12300 (1927) 10 (1954) 552 36 51 71 83 161 306 358 950 2040
2020-08-06 23:30 2.12 282 6920 (2013) 13 (1954) 465 37 55 75 86 151 344 409 1110 1620
2020-08-06 22:30 2.14 290 6920 (2013) 13 (1954) 465 37 55 75 86 151 344 409 1110 1620
2020-08-06 21:30 2.16 299 6920 (2013) 13 (1954) 465 37 55 75 86 151 344 409 1110 1620
2020-08-06 20:30 2.17 303 6920 (2013) 13 (1954) 465 37 55 75 86 151 344 409 1110 1620
2020-08-06 19:30 2.18 307 6920 (2013) 13 (1954) 465 37 55 75 86 151 344 409 1110 1620
2020-08-06 18:30 2.17 303 6920 (2013) 13 (1954) 465 37 55 75 86 151 344 409 1110 1620
2020-08-06 17:30 2.11 278 6920 (2013) 13 (1954) 465 37 55 75 86 151 344 409 1110 1620
2020-08-06 16:30 2.08 267 6920 (2013) 13 (1954) 465 37 55 75 86 151 344 409 1110 1620
2020-08-06 15:30 2.09 271 6920 (2013) 13 (1954) 465 37 55 75 86 151 344 409 1110 1620
2020-08-06 14:30 2.09 271 6920 (2013) 13 (1954) 465 37 55 75 86 151 344 409 1110 1620
2020-08-06 13:30 2.09 271 6920 (2013) 13 (1954) 465 37 55 75 86 151 344 409 1110 1620
2020-08-06 12:30 2.09 271 6920 (2013) 13 (1954) 465 37 55 75 86 151 344 409 1110 1620
2020-08-06 11:30 2.09 271 6920 (2013) 13 (1954) 465 37 55 75 86 151 344 409 1110 1620
2020-08-06 10:30 2.09 271 6920 (2013) 13 (1954) 465 37 55 75 86 151 344 409 1110 1620
2020-08-06 09:30 2.10 275 6920 (2013) 13 (1954) 465 37 55 75 86 151 344 409 1110 1620
2020-08-06 08:30 2.11 278 6920 (2013) 13 (1954) 465 37 55 75 86 151 344 409 1110 1620
2020-08-06 07:30 2.10 275 6920 (2013) 13 (1954) 465 37 55 75 86 151 344 409 1110 1620
2020-08-06 06:30 2.11 278 6920 (2013) 13 (1954) 465 37 55 75 86 151 344 409 1110 1620
2020-08-06 05:30 2.11 278 6920 (2013) 13 (1954) 465 37 55 75 86 151 344 409 1110 1620
2020-08-06 04:30 2.12 282 6920 (2013) 13 (1954) 465 37 55 75 86 151 344 409 1110 1620
2020-08-06 03:30 2.12 282 6920 (2013) 13 (1954) 465 37 55 75 86 151 344 409 1110 1620
2020-08-06 02:30 2.13 286 6920 (2013) 13 (1954) 465 37 55 75 86 151 344 409 1110 1620
2020-08-06 01:30 2.13 286 6920 (2013) 13 (1954) 465 37 55 75 86 151 344 409 1110 1620
2020-08-06 00:30 2.13 286 6920 (2013) 13 (1954) 465 37 55 75 86 151 344 409 1110 1620
2020-08-05 23:30 2.13 286 9290 (2013) 11 (1954) 476 41 50 83 94 155 354 486 816 1920
2020-08-05 22:30 2.13 286 9290 (2013) 11 (1954) 476 41 50 83 94 155 354 486 816 1920
2020-08-05 21:30 2.14 290 9290 (2013) 11 (1954) 476 41 50 83 94 155 354 486 816 1920
2020-08-05 20:30 2.15 294 9290 (2013) 11 (1954) 476 41 50 83 94 155 354 486 816 1920
2020-08-05 19:30 2.15 294 9290 (2013) 11 (1954) 476 41 50 83 94 155 354 486 816 1920
2020-08-05 18:30 2.16 299 9290 (2013) 11 (1954) 476 41 50 83 94 155 354 486 816 1920
2020-08-05 17:30 2.15 294 9290 (2013) 11 (1954) 476 41 50 83 94 155 354 486 816 1920
2020-08-05 16:30 2.17 303 9290 (2013) 11 (1954) 476 41 50 83 94 155 354 486 816 1920
2020-08-05 15:30 2.17 303 9290 (2013) 11 (1954) 476 41 50 83 94 155 354 486 816 1920
2020-08-05 14:30 2.17 303 9290 (2013) 11 (1954) 476 41 50 83 94 155 354 486 816 1920
2020-08-05 13:30 2.17 303 9290 (2013) 11 (1954) 476 41 50 83 94 155 354 486 816 1920
2020-08-05 12:30 2.18 307 9290 (2013) 11 (1954) 476 41 50 83 94 155 354 486 816 1920
2020-08-05 11:30 2.19 311 9290 (2013) 11 (1954) 476 41 50 83 94 155 354 486 816 1920
2020-08-05 10:30 2.19 311 9290 (2013) 11 (1954) 476 41 50 83 94 155 354 486 816 1920
2020-08-05 09:30 2.19 311 9290 (2013) 11 (1954) 476 41 50 83 94 155 354 486 816 1920
2020-08-05 08:30 2.20 315 9290 (2013) 11 (1954) 476 41 50 83 94 155 354 486 816 1920
2020-08-05 07:30 2.21 319 9290 (2013) 11 (1954) 476 41 50 83 94 155 354 486 816 1920
2020-08-05 06:30 2.22 324 9290 (2013) 11 (1954) 476 41 50 83 94 155 354 486 816 1920
2020-08-05 05:30 2.21 319 9290 (2013) 11 (1954) 476 41 50 83 94 155 354 486 816 1920
2020-08-05 04:30 2.23 328 9290 (2013) 11 (1954) 476 41 50 83 94 155 354 486 816 1920
2020-08-05 03:30 2.23 328 9290 (2013) 11 (1954) 476 41 50 83 94 155 354 486 816 1920
2020-08-05 02:30 2.23 328 9290 (2013) 11 (1954) 476 41 50 83 94 155 354 486 816 1920
2020-08-05 01:30 2.25 336 9290 (2013) 11 (1954) 476 41 50 83 94 155 354 486 816 1920
2020-08-05 00:30 2.25 336 9290 (2013) 11 (1954) 476 41 50 83 94 155 354 486 816 1920
2020-08-04 23:30 2.24 332 6800 (2013) 10 (1954) 414 30 48 84 89 146 366 471 838 1560
2020-08-04 22:30 2.25 336 6800 (2013) 10 (1954) 414 30 48 84 89 146 366 471 838 1560
2020-08-04 21:30 2.26 341 6800 (2013) 10 (1954) 414 30 48 84 89 146 366 471 838 1560
2020-08-04 20:30 2.26 341 6800 (2013) 10 (1954) 414 30 48 84 89 146 366 471 838 1560
2020-08-04 19:30 2.27 345 6800 (2013) 10 (1954) 414 30 48 84 89 146 366 471 838 1560
2020-08-04 18:30 2.28 350 6800 (2013) 10 (1954) 414 30 48 84 89 146 366 471 838 1560
2020-08-04 17:30 2.30 358 6800 (2013) 10 (1954) 414 30 48 84 89 146 366 471 838 1560
2020-08-04 16:30 2.30 358 6800 (2013) 10 (1954) 414 30 48 84 89 146 366 471 838 1560
2020-08-04 15:30 2.31 363 6800 (2013) 10 (1954) 414 30 48 84 89 146 366 471 838 1560
2020-08-04 14:30 2.32 367 6800 (2013) 10 (1954) 414 30 48 84 89 146 366 471 838 1560
2020-08-04 13:30 2.32 367 6800 (2013) 10 (1954) 414 30 48 84 89 146 366 471 838 1560
2020-08-04 12:30 2.34 376 6800 (2013) 10 (1954) 414 30 48 84 89 146 366 471 838 1560
2020-08-04 11:30 2.34 376 6800 (2013) 10 (1954) 414 30 48 84 89 146 366 471 838 1560
2020-08-04 10:30 2.36 386 6800 (2013) 10 (1954) 414 30 48 84 89 146 366 471 838 1560
2020-08-04 09:30 2.37 390 6800 (2013) 10 (1954) 414 30 48 84 89 146 366 471 838 1560
2020-08-04 08:30 2.38 395 6800 (2013) 10 (1954) 414 30 48 84 89 146 366 471 838 1560
2020-08-04 07:30 2.39 400 6800 (2013) 10 (1954) 414 30 48 84 89 146 366 471 838 1560
2020-08-04 06:30 2.39 400 6800 (2013) 10 (1954) 414 30 48 84 89 146 366 471 838 1560
2020-08-04 05:30 2.41 409 6800 (2013) 10 (1954) 414 30 48 84 89 146 366 471 838 1560
2020-08-04 04:30 2.43 419 6800 (2013) 10 (1954) 414 30 48 84 89 146 366 471 838 1560
2020-08-04 03:30 2.43 419 6800 (2013) 10 (1954) 414 30 48 84 89 146 366 471 838 1560
2020-08-04 02:30 2.45 428 6800 (2013) 10 (1954) 414 30 48 84 89 146 366 471 838 1560
2020-08-04 01:30 2.45 428 6800 (2013) 10 (1954) 414 30 48 84 89 146 366 471 838 1560
2020-08-04 00:30 2.47 438 6800 (2013) 10 (1954) 414 30 48 84 89 146 366 471 838 1560
2020-08-03 23:30 2.47 438 3770 (1933) 12 (1954) 305 31 51 83 99 160 332 377 668 1140
2020-08-03 22:30 2.48 442 3770 (1933) 12 (1954) 305 31 51 83 99 160 332 377 668 1140
2020-08-03 21:30 2.50 452 3770 (1933) 12 (1954) 305 31 51 83 99 160 332 377 668 1140
2020-08-03 20:30 2.52 461 3770 (1933) 12 (1954) 305 31 51 83 99 160 332 377 668 1140
2020-08-03 19:30 2.53 466 3770 (1933) 12 (1954) 305 31 51 83 99 160 332 377 668 1140
2020-08-03 18:30 2.54 471 3770 (1933) 12 (1954) 305 31 51 83 99 160 332 377 668 1140
2020-08-03 17:30 2.57 485 3770 (1933) 12 (1954) 305 31 51 83 99 160 332 377 668 1140
2020-08-03 16:30 2.58 490 3770 (1933) 12 (1954) 305 31 51 83 99 160 332 377 668 1140
2020-08-03 15:30 2.60 500 3770 (1933) 12 (1954) 305 31 51 83 99 160 332 377 668 1140
2020-08-03 14:30 2.61 504 3770 (1933) 12 (1954) 305 31 51 83 99 160 332 377 668 1140
2020-08-03 13:30 2.62 509 3770 (1933) 12 (1954) 305 31 51 83 99 160 332 377 668 1140
2020-08-03 12:30 2.65 524 3770 (1933) 12 (1954) 305 31 51 83 99 160 332 377 668 1140
2020-08-03 11:30 2.67 534 3770 (1933) 12 (1954) 305 31 51 83 99 160 332 377 668 1140
2020-08-03 10:30 2.69 545 3770 (1933) 12 (1954) 305 31 51 83 99 160 332 377 668 1140
2020-08-03 09:30 2.72 560 3770 (1933) 12 (1954) 305 31 51 83 99 160 332 377 668 1140
2020-08-03 08:30 2.74 570 3770 (1933) 12 (1954) 305 31 51 83 99 160 332 377 668 1140
2020-08-03 07:30 2.75 575 3770 (1933) 12 (1954) 305 31 51 83 99 160 332 377 668 1140
2020-08-03 06:30 2.79 596 3770 (1933) 12 (1954) 305 31 51 83 99 160 332 377 668 1140
2020-08-03 05:30 2.81 607 3770 (1933) 12 (1954) 305 31 51 83 99 160 332 377 668 1140
2020-08-03 04:30 2.84 623 3770 (1933) 12 (1954) 305 31 51 83 99 160 332 377 668 1140
2020-08-03 03:30 2.86 634 3770 (1933) 12 (1954) 305 31 51 83 99 160 332 377 668 1140
2020-08-03 02:30 2.90 656 3770 (1933) 12 (1954) 305 31 51 83 99 160 332 377 668 1140
2020-08-03 01:30 2.94 678 3770 (1933) 12 (1954) 305 31 51 83 99 160 332 377 668 1140
2020-08-03 00:30 2.97 695 3770 (1933) 12 (1954) 305 31 51 83 99 160 332 377 668 1140
2020-08-02 23:30 3.01 718 2890 (2013) 10 (1954) 313 33 54 87 97 161 315 377 719 944
2020-08-02 22:30 3.04 736 2890 (2013) 10 (1954) 313 33 54 87 97 161 315 377 719 944
2020-08-02 21:30 3.11 779 2890 (2013) 10 (1954) 313 33 54 87 97 161 315 377 719 944
2020-08-02 20:30 3.14 797 2890 (2013) 10 (1954) 313 33 54 87 97 161 315 377 719 944
2020-08-02 19:30 3.20 829 2890 (2013) 10 (1954) 313 33 54 87 97 161 315 377 719 944
2020-08-02 18:30 3.22 842 2890 (2013) 10 (1954) 313 33 54 87 97 161 315 377 719 944
2020-08-02 17:30 3.29 887 2890 (2013) 10 (1954) 313 33 54 87 97 161 315 377 719 944
2020-08-02 16:30 3.36 933 2890 (2013) 10 (1954) 313 33 54 87 97 161 315 377 719 944
2020-08-02 15:30 3.43 980 2890 (2013) 10 (1954) 313 33 54 87 97 161 315 377 719 944
2020-08-02 14:30 3.52 1040 2890 (2013) 10 (1954) 313 33 54 87 97 161 315 377 719 944
2020-08-02 13:30 3.58 1080 2890 (2013) 10 (1954) 313 33 54 87 97 161 315 377 719 944
2020-08-02 12:30 3.66 1140 2890 (2013) 10 (1954) 313 33 54 87 97 161 315 377 719 944
2020-08-02 11:30 3.75 1200 2890 (2013) 10 (1954) 313 33 54 87 97 161 315 377 719 944
2020-08-02 10:30 3.84 1270 2890 (2013) 10 (1954) 313 33 54 87 97 161 315 377 719 944
2020-08-02 09:30 3.91 1320 2890 (2013) 10 (1954) 313 33 54 87 97 161 315 377 719 944
2020-08-02 08:30 4.01 1390 2890 (2013) 10 (1954) 313 33 54 87 97 161 315 377 719 944
2020-08-02 07:30 4.13 1480 2890 (2013) 10 (1954) 313 33 54 87 97 161 315 377 719 944
2020-08-02 06:30 4.18 1520 2890 (2013) 10 (1954) 313 33 54 87 97 161 315 377 719 944
2020-08-02 05:30 4.29 1600 2890 (2013) 10 (1954) 313 33 54 87 97 161 315 377 719 944
2020-08-02 04:30 4.39 1680 2890 (2013) 10 (1954) 313 33 54 87 97 161 315 377 719 944
2020-08-02 03:30 4.49 1760 2890 (2013) 10 (1954) 313 33 54 87 97 161 315 377 719 944
2020-08-02 02:30 4.53 1790 2890 (2013) 10 (1954) 313 33 54 87 97 161 315 377 719 944
2020-08-02 01:30 4.65 1890 2890 (2013) 10 (1954) 313 33 54 87 97 161 315 377 719 944
2020-08-02 00:30 4.75 1970 2890 (2013) 10 (1954) 313 33 54 87 97 161 315 377 719 944
2020-08-01 23:30 4.82 2030 4940 (1989) 8 (1954) 346 35 54 90 105 168 316 401 599 1160
2020-08-01 22:30 4.93 2120 4940 (1989) 8 (1954) 346 35 54 90 105 168 316 401 599 1160
2020-08-01 21:30 5.03 2200 4940 (1989) 8 (1954) 346 35 54 90 105 168 316 401 599 1160
2020-08-01 20:30 5.10 2270 4940 (1989) 8 (1954) 346 35 54 90 105 168 316 401 599 1160
2020-08-01 19:30 5.20 2350 4940 (1989) 8 (1954) 346 35 54 90 105 168 316 401 599 1160
2020-08-01 18:30 5.27 2410 4940 (1989) 8 (1954) 346 35 54 90 105 168 316 401 599 1160
2020-08-01 17:30 5.42 2540 4940 (1989) 8 (1954) 346 35 54 90 105 168 316 401 599 1160
2020-08-01 16:30 5.56 2670 4940 (1989) 8 (1954) 346 35 54 90 105 168 316 401 599 1160
2020-08-01 15:30 5.68 2770 4940 (1989) 8 (1954) 346 35 54 90 105 168 316 401 599 1160
2020-08-01 14:30 5.80 2880 4940 (1989) 8 (1954) 346 35 54 90 105 168 316 401 599 1160
2020-08-01 13:30 5.98 3040 4940 (1989) 8 (1954) 346 35 54 90 105 168 316 401 599 1160
2020-08-01 12:30 6.08 3130 4940 (1989) 8 (1954) 346 35 54 90 105 168 316 401 599 1160
2020-08-01 11:30 6.34 3370 4940 (1989) 8 (1954) 346 35 54 90 105 168 316 401 599 1160
2020-08-01 10:30 6.49 3510 4940 (1989) 8 (1954) 346 35 54 90 105 168 316 401 599 1160
2020-08-01 09:30 6.67 3680 4940 (1989) 8 (1954) 346 35 54 90 105 168 316 401 599 1160
2020-08-01 08:30 6.80 3810 4940 (1989) 8 (1954) 346 35 54 90 105 168 316 401 599 1160
2020-08-01 07:30 6.99 3990 4940 (1989) 8 (1954) 346 35 54 90 105 168 316 401 599 1160
2020-08-01 06:30 7.06 4060 4940 (1989) 8 (1954) 346 35 54 90 105 168 316 401 599 1160
2020-08-01 05:30 7.24 4240 4940 (1989) 8 (1954) 346 35 54 90 105 168 316 401 599 1160
2020-08-01 04:30 7.35 4340 4940 (1989) 8 (1954) 346 35 54 90 105 168 316 401 599 1160
2020-08-01 03:30 7.38 4370 4940 (1989) 8 (1954) 346 35 54 90 105 168 316 401 599 1160
2020-08-01 02:30 7.46 4450 4940 (1989) 8 (1954) 346 35 54 90 105 168 316 401 599 1160
2020-08-01 01:30 7.37 4360 4940 (1989) 8 (1954) 346 35 54 90 105 168 316 401 599 1160
2020-08-01 00:30 7.38 4370 4940 (1989) 8 (1954) 346 35 54 90 105 168 316 401 599 1160
2020-07-31 23:30 7.28 4280 18100 (2013) 8 (1954) 472 40 56 89 102 181 349 395 657 1240
2020-07-31 22:30 7.20 4200 18100 (2013) 8 (1954) 472 40 56 89 102 181 349 395 657 1240
2020-07-31 21:30 7.04 4040 18100 (2013) 8 (1954) 472 40 56 89 102 181 349 395 657 1240
2020-07-31 20:30 6.92 3930 18100 (2013) 8 (1954) 472 40 56 89 102 181 349 395 657 1240
2020-07-31 19:30 6.78 3790 18100 (2013) 8 (1954) 472 40 56 89 102 181 349 395 657 1240
2020-07-31 18:30 6.74 3750 18100 (2013) 8 (1954) 472 40 56 89 102 181 349 395 657 1240
2020-07-31 17:30 6.75 3760 18100 (2013) 8 (1954) 472 40 56 89 102 181 349 395 657 1240
2020-07-31 16:30 6.74 3750 18100 (2013) 8 (1954) 472 40 56 89 102 181 349 395 657 1240
2020-07-31 15:30 6.80 3810 18100 (2013) 8 (1954) 472 40 56 89 102 181 349 395 657 1240
2020-07-31 14:30 6.82 3830 18100 (2013) 8 (1954) 472 40 56 89 102 181 349 395 657 1240
2020-07-31 13:30 6.81 3820 18100 (2013) 8 (1954) 472 40 56 89 102 181 349 395 657 1240
2020-07-31 12:30 6.83 3840 18100 (2013) 8 (1954) 472 40 56 89 102 181 349 395 657 1240
2020-07-31 11:30 6.80 3810 18100 (2013) 8 (1954) 472 40 56 89 102 181 349 395 657 1240
2020-07-31 10:30 6.64 3650 18100 (2013) 8 (1954) 472 40 56 89 102 181 349 395 657 1240
2020-07-31 09:30 6.41 3440 18100 (2013) 8 (1954) 472 40 56 89 102 181 349 395 657 1240
2020-07-31 08:30 6.18 3230 18100 (2013) 8 (1954) 472 40 56 89 102 181 349 395 657 1240
2020-07-31 07:30 6.03 3090 18100 (2013) 8 (1954) 472 40 56 89 102 181 349 395 657 1240
2020-07-31 06:30 5.93 2990 18100 (2013) 8 (1954) 472 40 56 89 102 181 349 395 657 1240
2020-07-31 05:30 5.93 2990 18100 (2013) 8 (1954) 472 40 56 89 102 181 349 395 657 1240
2020-07-31 04:30 5.95 3010 18100 (2013) 8 (1954) 472 40 56 89 102 181 349 395 657 1240
2020-07-31 03:30 5.95 3010 18100 (2013) 8 (1954) 472 40 56 89 102 181 349 395 657 1240
2020-07-31 02:30 6.13 3180 18100 (2013) 8 (1954) 472 40 56 89 102 181 349 395 657 1240
2020-07-31 01:30 6.27 3300 18100 (2013) 8 (1954) 472 40 56 89 102 181 349 395 657 1240
2020-07-31 00:30 6.35 3380 18100 (2013) 8 (1954) 472 40 56 89 102 181 349 395 657 1240
2020-07-30 23:30 6.50 3520 11300 (2013) 9 (1954) 408 37 57 91 103 197 373 406 691 1230
2020-07-30 22:30 6.60 3620 11300 (2013) 9 (1954) 408 37 57 91 103 197 373 406 691 1230
2020-07-30 21:30 6.63 3640 11300 (2013) 9 (1954) 408 37 57 91 103 197 373 406 691 1230
2020-07-30 20:30 6.67 3680 11300 (2013) 9 (1954) 408 37 57 91 103 197 373 406 691 1230
2020-07-30 19:30 6.76 3770 11300 (2013) 9 (1954) 408 37 57 91 103 197 373 406 691 1230
2020-07-30 18:30 6.78 3790 11300 (2013) 9 (1954) 408 37 57 91 103 197 373 406 691 1230
2020-07-30 17:30 6.79 3800 11300 (2013) 9 (1954) 408 37 57 91 103 197 373 406 691 1230
2020-07-30 16:30 6.72 3730 11300 (2013) 9 (1954) 408 37 57 91 103 197 373 406 691 1230
2020-07-30 15:30 6.58 3600 11300 (2013) 9 (1954) 408 37 57 91 103 197 373 406 691 1230
2020-07-30 14:30 6.32 3350 11300 (2013) 9 (1954) 408 37 57 91 103 197 373 406 691 1230
2020-07-30 13:30 6.03 3090 11300 (2013) 9 (1954) 408 37 57 91 103 197 373 406 691 1230
2020-07-30 12:30 5.70 2790 11300 (2013) 9 (1954) 408 37 57 91 103 197 373 406 691 1230
2020-07-30 11:30 5.29 2430 11300 (2013) 9 (1954) 408 37 57 91 103 197 373 406 691 1230
2020-07-30 10:30 4.93 2120 11300 (2013) 9 (1954) 408 37 57 91 103 197 373 406 691 1230
2020-07-30 09:30 4.80 2010 11300 (2013) 9 (1954) 408 37 57 91 103 197 373 406 691 1230
2020-07-30 08:30 4.80 2010 11300 (2013) 9 (1954) 408 37 57 91 103 197 373 406 691 1230
2020-07-30 07:30 4.77 1990 11300 (2013) 9 (1954) 408 37 57 91 103 197 373 406 691 1230
2020-07-30 06:30 4.71 1940 11300 (2013) 9 (1954) 408 37 57 91 103 197 373 406 691 1230
2020-07-30 05:30 4.58 1830 11300 (2013) 9 (1954) 408 37 57 91 103 197 373 406 691 1230
2020-07-30 04:30 4.34 1640 11300 (2013) 9 (1954) 408 37 57 91 103 197 373 406 691 1230
2020-07-30 03:30 3.88 1290 11300 (2013) 9 (1954) 408 37 57 91 103 197 373 406 691 1230
2020-07-30 02:30 3.44 987 11300 (2013) 9 (1954) 408 37 57 91 103 197 373 406 691 1230
2020-07-30 01:30 3.22 842 11300 (2013) 9 (1954) 408 37 57 91 103 197 373 406 691 1230
2020-07-30 00:30 3.18 816 11300 (2013) 9 (1954) 408 37 57 91 103 197 373 406 691 1230
2020-07-29 23:30 3.21 835 3510 (1958) 7 (1954) 333 44 58 92 103 211 363 388 544 1520
2020-07-29 22:30 3.18 816 3510 (1958) 7 (1954) 333 44 58 92 103 211 363 388 544 1520
2020-07-29 21:30 3.22 842 3510 (1958) 7 (1954) 333 44 58 92 103 211 363 388 544 1520
2020-07-29 20:30 3.22 842 3510 (1958) 7 (1954) 333 44 58 92 103 211 363 388 544 1520
2020-07-29 19:30 3.30 893 3510 (1958) 7 (1954) 333 44 58 92 103 211 363 388 544 1520
2020-07-29 18:30 3.37 940 3510 (1958) 7 (1954) 333 44 58 92 103 211 363 388 544 1520
2020-07-29 17:30 3.39 953 3510 (1958) 7 (1954) 333 44 58 92 103 211 363 388 544 1520
2020-07-29 16:30 3.39 953 3510 (1958) 7 (1954) 333 44 58 92 103 211 363 388 544 1520
2020-07-29 15:30 3.39 953 3510 (1958) 7 (1954) 333 44 58 92 103 211 363 388 544 1520
2020-07-29 14:30 3.35 926 3510 (1958) 7 (1954) 333 44 58 92 103 211 363 388 544 1520
2020-07-29 13:30 3.28 880 3510 (1958) 7 (1954) 333 44 58 92 103 211 363 388 544 1520
2020-07-29 12:30 3.24 854 3510 (1958) 7 (1954) 333 44 58 92 103 211 363 388 544 1520
2020-07-29 11:30 3.13 791 3510 (1958) 7 (1954) 333 44 58 92 103 211 363 388 544 1520
2020-07-29 10:30 3.05 742 3510 (1958) 7 (1954) 333 44 58 92 103 211 363 388 544 1520
2020-07-29 09:30 2.94 678 3510 (1958) 7 (1954) 333 44 58 92 103 211 363 388 544 1520
2020-07-29 08:30 2.89 651 3510 (1958) 7 (1954) 333 44 58 92 103 211 363 388 544 1520
2020-07-29 07:30 2.90 656 3510 (1958) 7 (1954) 333 44 58 92 103 211 363 388 544 1520
2020-07-29 06:30 2.92 667 3510 (1958) 7 (1954) 333 44 58 92 103 211 363 388 544 1520
2020-07-29 05:30 3.00 712 3510 (1958) 7 (1954) 333 44 58 92 103 211 363 388 544 1520
2020-07-29 04:30 3.06 748 3510 (1958) 7 (1954) 333 44 58 92 103 211 363 388 544 1520
2020-07-29 03:30 3.13 791 3510 (1958) 7 (1954) 333 44 58 92 103 211 363 388 544 1520
2020-07-29 02:30 3.22 842 3510 (1958) 7 (1954) 333 44 58 92 103 211 363 388 544 1520
2020-07-29 01:30 3.28 880 3510 (1958) 7 (1954) 333 44 58 92 103 211 363 388 544 1520
2020-07-29 00:30 3.38 946 3510 (1958) 7 (1954) 333 44 58 92 103 211 363 388 544 1520
2020-07-28 23:30 3.49 1020 5790 (1958) 5 (1954) 434 45 60 100 108 222 388 436 754 1670
2020-07-28 22:30 3.56 1060 5790 (1958) 5 (1954) 434 45 60 100 108 222 388 436 754 1670
2020-07-28 21:30 3.65 1130 5790 (1958) 5 (1954) 434 45 60 100 108 222 388 436 754 1670
2020-07-28 20:30 3.71 1170 5790 (1958) 5 (1954) 434 45 60 100 108 222 388 436 754 1670
2020-07-28 19:30 3.79 1230 5790 (1958) 5 (1954) 434 45 60 100 108 222 388 436 754 1670
2020-07-28 18:30 3.81 1250 5790 (1958) 5 (1954) 434 45 60 100 108 222 388 436 754 1670
2020-07-28 17:30 3.81 1250 5790 (1958) 5 (1954) 434 45 60 100 108 222 388 436 754 1670
2020-07-28 16:30 3.65 1130 5790 (1958) 5 (1954) 434 45 60 100 108 222 388 436 754 1670
2020-07-28 15:30 3.30 893 5790 (1958) 5 (1954) 434 45 60 100 108 222 388 436 754 1670
2020-07-28 14:30 2.72 560 5790 (1958) 5 (1954) 434 45 60 100 108 222 388 436 754 1670
2020-07-28 13:30 2.44 423 5790 (1958) 5 (1954) 434 45 60 100 108 222 388 436 754 1670
2020-07-28 12:30 2.47 438 5790 (1958) 5 (1954) 434 45 60 100 108 222 388 436 754 1670
2020-07-28 11:30 2.56 480 5790 (1958) 5 (1954) 434 45 60 100 108 222 388 436 754 1670
2020-07-28 10:30 2.63 514 5790 (1958) 5 (1954) 434 45 60 100 108 222 388 436 754 1670
2020-07-28 09:30 2.66 529 5790 (1958) 5 (1954) 434 45 60 100 108 222 388 436 754 1670
2020-07-28 08:30 2.67 534 5790 (1958) 5 (1954) 434 45 60 100 108 222 388 436 754 1670
2020-07-28 07:30 2.58 490 5790 (1958) 5 (1954) 434 45 60 100 108 222 388 436 754 1670
2020-07-28 06:30 2.32 367 5790 (1958) 5 (1954) 434 45 60 100 108 222 388 436 754 1670
2020-07-28 05:30 2.07 263 5790 (1958) 5 (1954) 434 45 60 100 108 222 388 436 754 1670
2020-07-28 04:30 1.98 229 5790 (1958) 5 (1954) 434 45 60 100 108 222 388 436 754 1670
2020-07-28 03:30 1.96 222 5790 (1958) 5 (1954) 434 45 60 100 108 222 388 436 754 1670
2020-07-28 02:30 1.93 212 5790 (1958) 5 (1954) 434 45 60 100 108 222 388 436 754 1670
2020-07-28 01:30 1.91 205 5790 (1958) 5 (1954) 434 45 60 100 108 222 388 436 754 1670
2020-07-28 00:30 1.89 198 5790 (1958) 5 (1954) 434 45 60 100 108 222 388 436 754 1670
2020-07-27 23:30 1.90 202 13400 (1948) 6 (1954) 517 34 61 105 117 223 380 436 564 2280
2020-07-27 22:30 1.90 202 13400 (1948) 6 (1954) 517 34 61 105 117 223 380 436 564 2280
2020-07-27 21:30 1.91 205 13400 (1948) 6 (1954) 517 34 61 105 117 223 380 436 564 2280
2020-07-27 20:30 1.91 205 13400 (1948) 6 (1954) 517 34 61 105 117 223 380 436 564 2280
2020-07-27 19:30 1.90 202 13400 (1948) 6 (1954) 517 34 61 105 117 223 380 436 564 2280
2020-07-27 18:30 1.87 192 13400 (1948) 6 (1954) 517 34 61 105 117 223 380 436 564 2280
2020-07-27 17:30 1.85 185 13400 (1948) 6 (1954) 517 34 61 105 117 223 380 436 564 2280
2020-07-27 16:30 1.82 175 13400 (1948) 6 (1954) 517 34 61 105 117 223 380 436 564 2280
2020-07-27 15:30 1.82 175 13400 (1948) 6 (1954) 517 34 61 105 117 223 380 436 564 2280
2020-07-27 14:30 1.82 175 13400 (1948) 6 (1954) 517 34 61 105 117 223 380 436 564 2280
2020-07-27 13:30 1.82 175 13400 (1948) 6 (1954) 517 34 61 105 117 223 380 436 564 2280
2020-07-27 12:30 1.82 175 13400 (1948) 6 (1954) 517 34 61 105 117 223 380 436 564 2280
2020-07-27 11:30 1.82 175 13400 (1948) 6 (1954) 517 34 61 105 117 223 380 436 564 2280
2020-07-27 10:30 1.82 175 13400 (1948) 6 (1954) 517 34 61 105 117 223 380 436 564 2280
2020-07-27 09:30 1.81 172 13400 (1948) 6 (1954) 517 34 61 105 117 223 380 436 564 2280
2020-07-27 08:30 1.82 175 13400 (1948) 6 (1954) 517 34 61 105 117 223 380 436 564 2280
2020-07-27 07:30 1.81 172 13400 (1948) 6 (1954) 517 34 61 105 117 223 380 436 564 2280
2020-07-27 06:30 1.81 172 13400 (1948) 6 (1954) 517 34 61 105 117 223 380 436 564 2280
2020-07-27 05:30 1.81 172 13400 (1948) 6 (1954) 517 34 61 105 117 223 380 436 564 2280
2020-07-27 04:30 1.80 169 13400 (1948) 6 (1954) 517 34 61 105 117 223 380 436 564 2280
2020-07-27 03:30 1.80 169 13400 (1948) 6 (1954) 517 34 61 105 117 223 380 436 564 2280
2020-07-27 02:30 1.81 172 13400 (1948) 6 (1954) 517 34 61 105 117 223 380 436 564 2280
2020-07-27 01:30 1.81 172 13400 (1948) 6 (1954) 517 34 61 105 117 223 380 436 564 2280
2020-07-27 00:30 1.81 172 13400 (1948) 6 (1954) 517 34 61 105 117 223 380 436 564 2280
2020-07-26 23:30 1.81 172 11800 (1948) 9 (1954) 510 36 62 107 123 218 409 463 614 1470
2020-07-26 22:30 1.81 172 11800 (1948) 9 (1954) 510 36 62 107 123 218 409 463 614 1470
2020-07-26 21:30 1.81 172 11800 (1948) 9 (1954) 510 36 62 107 123 218 409 463 614 1470
2020-07-26 20:30 1.81 172 11800 (1948) 9 (1954) 510 36 62 107 123 218 409 463 614 1470
2020-07-26 19:30 1.81 172 11800 (1948) 9 (1954) 510 36 62 107 123 218 409 463 614 1470
2020-07-26 18:30 1.82 175 11800 (1948) 9 (1954) 510 36 62 107 123 218 409 463 614 1470
2020-07-26 17:30 1.82 175 11800 (1948) 9 (1954) 510 36 62 107 123 218 409 463 614 1470
2020-07-26 16:30 1.82 175 11800 (1948) 9 (1954) 510 36 62 107 123 218 409 463 614 1470
2020-07-26 15:30 1.82 175 11800 (1948) 9 (1954) 510 36 62 107 123 218 409 463 614 1470
2020-07-26 14:30 1.82 175 11800 (1948) 9 (1954) 510 36 62 107 123 218 409 463 614 1470
2020-07-26 13:30 1.83 179 11800 (1948) 9 (1954) 510 36 62 107 123 218 409 463 614 1470
2020-07-26 12:30 1.83 179 11800 (1948) 9 (1954) 510 36 62 107 123 218 409 463 614 1470
2020-07-26 11:30 1.83 179 11800 (1948) 9 (1954) 510 36 62 107 123 218 409 463 614 1470
2020-07-26 10:30 1.83 179 11800 (1948) 9 (1954) 510 36 62 107 123 218 409 463 614 1470
2020-07-26 09:30 1.83 179 11800 (1948) 9 (1954) 510 36 62 107 123 218 409 463 614 1470
2020-07-26 08:30 1.83 179 11800 (1948) 9 (1954) 510 36 62 107 123 218 409 463 614 1470
2020-07-26 07:30 1.83 179 11800 (1948) 9 (1954) 510 36 62 107 123 218 409 463 614 1470
2020-07-26 06:30 1.83 179 11800 (1948) 9 (1954) 510 36 62 107 123 218 409 463 614 1470
2020-07-26 05:30 1.83 179 11800 (1948) 9 (1954) 510 36 62 107 123 218 409 463 614 1470
2020-07-26 04:30 1.84 182 11800 (1948) 9 (1954) 510 36 62 107 123 218 409 463 614 1470
2020-07-26 03:30 1.83 179 11800 (1948) 9 (1954) 510 36 62 107 123 218 409 463 614 1470
2020-07-26 02:30 1.83 179 11800 (1948) 9 (1954) 510 36 62 107 123 218 409 463 614 1470
2020-07-26 01:30 1.84 182 11800 (1948) 9 (1954) 510 36 62 107 123 218 409 463 614 1470
2020-07-26 00:30 1.84 182 11800 (1948) 9 (1954) 510 36 62 107 123 218 409 463 614 1470
2020-07-25 23:30 1.84 182 9710 (1958) 14 (1954) 437 36 64 106 120 230 439 477 777 1550
2020-07-25 22:30 1.84 182 9710 (1958) 14 (1954) 437 36 64 106 120 230 439 477 777 1550
2020-07-25 21:30 1.84 182 9710 (1958) 14 (1954) 437 36 64 106 120 230 439 477 777 1550
2020-07-25 20:30 1.85 185 9710 (1958) 14 (1954) 437 36 64 106 120 230 439 477 777 1550
2020-07-25 19:30 1.84 182 9710 (1958) 14 (1954) 437 36 64 106 120 230 439 477 777 1550
2020-07-25 18:30 1.85 185 9710 (1958) 14 (1954) 437 36 64 106 120 230 439 477 777 1550
2020-07-25 17:30 1.84 182 9710 (1958) 14 (1954) 437 36 64 106 120 230 439 477 777 1550
2020-07-25 16:30 1.85 185 9710 (1958) 14 (1954) 437 36 64 106 120 230 439 477 777 1550
2020-07-25 15:30 1.86 188 9710 (1958) 14 (1954) 437 36 64 106 120 230 439 477 777 1550
2020-07-25 14:30 1.86 188 9710 (1958) 14 (1954) 437 36 64 106 120 230 439 477 777 1550
2020-07-25 13:30 1.86 188 9710 (1958) 14 (1954) 437 36 64 106 120 230 439 477 777 1550
2020-07-25 12:30 1.87 192 9710 (1958) 14 (1954) 437 36 64 106 120 230 439 477 777 1550
2020-07-25 11:30 1.86 188 9710 (1958) 14 (1954) 437 36 64 106 120 230 439 477 777 1550
2020-07-25 10:30 1.87 192 9710 (1958) 14 (1954) 437 36 64 106 120 230 439 477 777 1550
2020-07-25 09:30 1.87 192 9710 (1958) 14 (1954) 437 36 64 106 120 230 439 477 777 1550
2020-07-25 08:30 1.87 192 9710 (1958) 14 (1954) 437 36 64 106 120 230 439 477 777 1550
2020-07-25 07:30 1.87 192 9710 (1958) 14 (1954) 437 36 64 106 120 230 439 477 777 1550
2020-07-25 06:30 1.87 192 9710 (1958) 14 (1954) 437 36 64 106 120 230 439 477 777 1550
2020-07-25 05:30 1.87 192 9710 (1958) 14 (1954) 437 36 64 106 120 230 439 477 777 1550
2020-07-25 04:30 1.87 192 9710 (1958) 14 (1954) 437 36 64 106 120 230 439 477 777 1550
2020-07-25 03:30 1.88 195 9710 (1958) 14 (1954) 437 36 64 106 120 230 439 477 777 1550
2020-07-25 02:30 1.87 192 9710 (1958) 14 (1954) 437 36 64 106 120 230 439 477 777 1550
2020-07-25 01:30 1.88 195 9710 (1958) 14 (1954) 437 36 64 106 120 230 439 477 777 1550
2020-07-25 00:30 1.88 195 9710 (1958) 14 (1954) 437 36 64 106 120 230 439 477 777 1550
2020-07-24 23:30 1.87 192 6800 (1992) 12 (1934) 496 37 57 108 121 222 412 546 884 2030
2020-07-24 22:30 1.88 195 6800 (1992) 12 (1934) 496 37 57 108 121 222 412 546 884 2030
2020-07-24 21:30 1.88 195 6800 (1992) 12 (1934) 496 37 57 108 121 222 412 546 884 2030
2020-07-24 20:30 1.88 195 6800 (1992) 12 (1934) 496 37 57 108 121 222 412 546 884 2030
2020-07-24 19:30 1.88 195 6800 (1992) 12 (1934) 496 37 57 108 121 222 412 546 884 2030
2020-07-24 18:30 1.88 195 6800 (1992) 12 (1934) 496 37 57 108 121 222 412 546 884 2030
2020-07-24 17:30 1.89 198 6800 (1992) 12 (1934) 496 37 57 108 121 222 412 546 884 2030
2020-07-24 16:30 1.89 198 6800 (1992) 12 (1934) 496 37 57 108 121 222 412 546 884 2030
2020-07-24 15:30 1.89 198 6800 (1992) 12 (1934) 496 37 57 108 121 222 412 546 884 2030
2020-07-24 14:30 1.90 202 6800 (1992) 12 (1934) 496 37 57 108 121 222 412 546 884 2030
2020-07-24 13:30 1.91 205 6800 (1992) 12 (1934) 496 37 57 108 121 222 412 546 884 2030
2020-07-24 12:30 1.90 202 6800 (1992) 12 (1934) 496 37 57 108 121 222 412 546 884 2030
2020-07-24 11:30 1.91 205 6800 (1992) 12 (1934) 496 37 57 108 121 222 412 546 884 2030
2020-07-24 10:30 1.91 205 6800 (1992) 12 (1934) 496 37 57 108 121 222 412 546 884 2030
2020-07-24 09:30 1.91 205 6800 (1992) 12 (1934) 496 37 57 108 121 222 412 546 884 2030
2020-07-24 08:30 1.91 205 6800 (1992) 12 (1934) 496 37 57 108 121 222 412 546 884 2030
2020-07-24 07:30 1.91 205 6800 (1992) 12 (1934) 496 37 57 108 121 222 412 546 884 2030
2020-07-24 06:30 1.91 205 6800 (1992) 12 (1934) 496 37 57 108 121 222 412 546 884 2030
2020-07-24 05:30 1.91 205 6800 (1992) 12 (1934) 496 37 57 108 121 222 412 546 884 2030
2020-07-24 04:30 1.92 208 6800 (1992) 12 (1934) 496 37 57 108 121 222 412 546 884 2030
2020-07-24 03:30 1.91 205 6800 (1992) 12 (1934) 496 37 57 108 121 222 412 546 884 2030
2020-07-24 02:30 1.92 208 6800 (1992) 12 (1934) 496 37 57 108 121 222 412 546 884 2030
2020-07-24 01:30 1.92 208 6800 (1992) 12 (1934) 496 37 57 108 121 222 412 546 884 2030
2020-07-24 00:30 1.92 208 6800 (1992) 12 (1934) 496 37 57 108 121 222 412 546 884 2030
2020-07-23 23:30 1.92 208 13900 (1927) 13 (1954) 695 42 64 97 125 206 446 553 956 2950
2020-07-23 22:30 1.91 205 13900 (1927) 13 (1954) 695 42 64 97 125 206 446 553 956 2950
2020-07-23 21:30 1.91 205 13900 (1927) 13 (1954) 695 42 64 97 125 206 446 553 956 2950
2020-07-23 20:30 1.92 208 13900 (1927) 13 (1954) 695 42 64 97 125 206 446 553 956 2950
2020-07-23 19:30 1.91 205 13900 (1927) 13 (1954) 695 42 64 97 125 206 446 553 956 2950
2020-07-23 18:30 1.91 205 13900 (1927) 13 (1954) 695 42 64 97 125 206 446 553 956 2950
2020-07-23 17:30 1.91 205 13900 (1927) 13 (1954) 695 42 64 97 125 206 446 553 956 2950
2020-07-23 16:30 1.92 208 13900 (1927) 13 (1954) 695 42 64 97 125 206 446 553 956 2950
2020-07-23 15:30 1.92 208 13900 (1927) 13 (1954) 695 42 64 97 125 206 446 553 956 2950
2020-07-23 14:30 1.92 208 13900 (1927) 13 (1954) 695 42 64 97 125 206 446 553 956 2950
2020-07-23 13:30 1.92 208 13900 (1927) 13 (1954) 695 42 64 97 125 206 446 553 956 2950
2020-07-23 12:30 1.92 208 13900 (1927) 13 (1954) 695 42 64 97 125 206 446 553 956 2950
2020-07-23 11:30 1.93 212 13900 (1927) 13 (1954) 695 42 64 97 125 206 446 553 956 2950
2020-07-23 10:30 1.93 212 13900 (1927) 13 (1954) 695 42 64 97 125 206 446 553 956 2950
2020-07-23 09:30 1.93 212 13900 (1927) 13 (1954) 695 42 64 97 125 206 446 553 956 2950
2020-07-23 08:30 1.93 212 13900 (1927) 13 (1954) 695 42 64 97 125 206 446 553 956 2950
2020-07-23 07:30 1.93 212 13900 (1927) 13 (1954) 695 42 64 97 125 206 446 553 956 2950
2020-07-23 06:30 1.93 212 13900 (1927) 13 (1954) 695 42 64 97 125 206 446 553 956 2950
2020-07-23 05:30 1.93 212 13900 (1927) 13 (1954) 695 42 64 97 125 206 446 553 956 2950
2020-07-23 04:30 1.94 215 13900 (1927) 13 (1954) 695 42 64 97 125 206 446 553 956 2950
2020-07-23 03:30 1.94 215 13900 (1927) 13 (1954) 695 42 64 97 125 206 446 553 956 2950
2020-07-23 02:30 1.94 215 13900 (1927) 13 (1954) 695 42 64 97 125 206 446 553 956 2950
2020-07-23 01:30 1.94 215 13900 (1927) 13 (1954) 695 42 64 97 125 206 446 553 956 2950
2020-07-23 00:30 1.94 215 13900 (1927) 13 (1954) 695 42 64 97 125 206 446 553 956 2950
2020-07-22 23:30 1.94 215 11200 (1927) 14 (1954) 510 49 71 92 121 203 429 523 866 1430
2020-07-22 22:30 1.94 215 11200 (1927) 14 (1954) 510 49 71 92 121 203 429 523 866 1430
2020-07-22 21:30 1.95 219 11200 (1927) 14 (1954) 510 49 71 92 121 203 429 523 866 1430
2020-07-22 20:30 1.95 219 11200 (1927) 14 (1954) 510 49 71 92 121 203 429 523 866 1430
2020-07-22 19:30 1.94 215 11200 (1927) 14 (1954) 510 49 71 92 121 203 429 523 866 1430
2020-07-22 18:30 1.95 219 11200 (1927) 14 (1954) 510 49 71 92 121 203 429 523 866 1430
2020-07-22 17:30 1.95 219 11200 (1927) 14 (1954) 510 49 71 92 121 203 429 523 866 1430
2020-07-22 16:30 1.95 219 11200 (1927) 14 (1954) 510 49 71 92 121 203 429 523 866 1430
2020-07-22 15:30 1.95 219 11200 (1927) 14 (1954) 510 49 71 92 121 203 429 523 866 1430
2020-07-22 14:30 1.95 219 11200 (1927) 14 (1954) 510 49 71 92 121 203 429 523 866 1430
2020-07-22 13:30 1.95 219 11200 (1927) 14 (1954) 510 49 71 92 121 203 429 523 866 1430
2020-07-22 12:30 1.95 219 11200 (1927) 14 (1954) 510 49 71 92 121 203 429 523 866 1430
2020-07-22 11:30 1.95 219 11200 (1927) 14 (1954) 510 49 71 92 121 203 429 523 866 1430
2020-07-22 10:30 1.95 219 11200 (1927) 14 (1954) 510 49 71 92 121 203 429 523 866 1430
2020-07-22 09:30 1.96 222 11200 (1927) 14 (1954) 510 49 71 92 121 203 429 523 866 1430
2020-07-22 08:30 1.96 222 11200 (1927) 14 (1954) 510 49 71 92 121 203 429 523 866 1430
2020-07-22 07:30 1.96 222 11200 (1927) 14 (1954) 510 49 71 92 121 203 429 523 866 1430
2020-07-22 06:30 1.96 222 11200 (1927) 14 (1954) 510 49 71 92 121 203 429 523 866 1430
2020-07-22 05:30 1.97 226 11200 (1927) 14 (1954) 510 49 71 92 121 203 429 523 866 1430
2020-07-22 04:30 1.97 226 11200 (1927) 14 (1954) 510 49 71 92 121 203 429 523 866 1430
2020-07-22 03:30 1.97 226 11200 (1927) 14 (1954) 510 49 71 92 121 203 429 523 866 1430
2020-07-22 02:30 1.98 229 11200 (1927) 14 (1954) 510 49 71 92 121 203 429 523 866 1430
2020-07-22 01:30 1.98 229 11200 (1927) 14 (1954) 510 49 71 92 121 203 429 523 866 1430
2020-07-22 00:30 1.97 226 11200 (1927) 14 (1954) 510 49 71 92 121 203 429 523 866 1430
2020-07-21 23:30 1.98 229 3980 (1927) 14 (1954) 448 50 72 93 118 212 415 491 1240 1790
2020-07-21 22:30 2.00 237 3980 (1927) 14 (1954) 448 50 72 93 118 212 415 491 1240 1790
2020-07-21 21:30 2.00 237 3980 (1927) 14 (1954) 448 50 72 93 118 212 415 491 1240 1790
2020-07-21 20:30 2.02 244 3980 (1927) 14 (1954) 448 50 72 93 118 212 415 491 1240 1790
2020-07-21 19:30 2.03 248 3980 (1927) 14 (1954) 448 50 72 93 118 212 415 491 1240 1790
2020-07-21 18:30 2.03 248 3980 (1927) 14 (1954) 448 50 72 93 118 212 415 491 1240 1790
2020-07-21 17:30 2.00 237 3980 (1927) 14 (1954) 448 50 72 93 118 212 415 491 1240 1790
2020-07-21 16:30 1.99 233 3980 (1927) 14 (1954) 448 50 72 93 118 212 415 491 1240 1790
2020-07-21 15:30 1.99 233 3980 (1927) 14 (1954) 448 50 72 93 118 212 415 491 1240 1790
2020-07-21 14:30 2.00 237 3980 (1927) 14 (1954) 448 50 72 93 118 212 415 491 1240 1790
2020-07-21 13:30 2.00 237 3980 (1927) 14 (1954) 448 50 72 93 118 212 415 491 1240 1790
2020-07-21 12:30 2.00 237 3980 (1927) 14 (1954) 448 50 72 93 118 212 415 491 1240 1790
2020-07-21 11:30 2.01 240 3980 (1927) 14 (1954) 448 50 72 93 118 212 415 491 1240 1790
2020-07-21 10:30 2.02 244 3980 (1927) 14 (1954) 448 50 72 93 118 212 415 491 1240 1790
2020-07-21 09:30 2.02 244 3980 (1927) 14 (1954) 448 50 72 93 118 212 415 491 1240 1790
2020-07-21 08:30 2.02 244 3980 (1927) 14 (1954) 448 50 72 93 118 212 415 491 1240 1790
2020-07-21 07:30 2.02 244 3980 (1927) 14 (1954) 448 50 72 93 118 212 415 491 1240 1790
2020-07-21 06:30 2.02 244 3980 (1927) 14 (1954) 448 50 72 93 118 212 415 491 1240 1790
2020-07-21 05:30 2.02 244 3980 (1927) 14 (1954) 448 50 72 93 118 212 415 491 1240 1790
2020-07-21 04:30 2.03 248 3980 (1927) 14 (1954) 448 50 72 93 118 212 415 491 1240 1790
2020-07-21 03:30 2.02 244 3980 (1927) 14 (1954) 448 50 72 93 118 212 415 491 1240 1790
2020-07-21 02:30 2.02 244 3980 (1927) 14 (1954) 448 50 72 93 118 212 415 491 1240 1790
2020-07-21 01:30 2.02 244 3980 (1927) 14 (1954) 448 50 72 93 118 212 415 491 1240 1790
2020-07-21 00:30 2.02 244 3980 (1927) 14 (1954) 448 50 72 93 118 212 415 491 1240 1790
2020-07-20 23:30 2.02 244 4920 (1950) 8 (1954) 463 51 65 100 121 222 419 515 1060 2390
2020-07-20 22:30 2.02 244 4920 (1950) 8 (1954) 463 51 65 100 121 222 419 515 1060 2390
2020-07-20 21:30 2.04 252 4920 (1950) 8 (1954) 463 51 65 100 121 222 419 515 1060 2390
2020-07-20 20:30 2.04 252 4920 (1950) 8 (1954) 463 51 65 100 121 222 419 515 1060 2390
2020-07-20 19:30 2.05 255 4920 (1950) 8 (1954) 463 51 65 100 121 222 419 515 1060 2390
2020-07-20 18:30 2.06 259 4920 (1950) 8 (1954) 463 51 65 100 121 222 419 515 1060 2390
2020-07-20 17:30 2.07 263 4920 (1950) 8 (1954) 463 51 65 100 121 222 419 515 1060 2390
2020-07-20 16:30 2.08 267 4920 (1950) 8 (1954) 463 51 65 100 121 222 419 515 1060 2390
2020-07-20 15:30 2.09 271 4920 (1950) 8 (1954) 463 51 65 100 121 222 419 515 1060 2390
2020-07-20 14:30 2.11 278 4920 (1950) 8 (1954) 463 51 65 100 121 222 419 515 1060 2390
2020-07-20 13:30 2.12 282 4920 (1950) 8 (1954) 463 51 65 100 121 222 419 515 1060 2390
2020-07-20 12:30 2.15 294 4920 (1950) 8 (1954) 463 51 65 100 121 222 419 515 1060 2390
2020-07-20 11:30 2.16 299 4920 (1950) 8 (1954) 463 51 65 100 121 222 419 515 1060 2390
2020-07-20 10:30 2.19 311 4920 (1950) 8 (1954) 463 51 65 100 121 222 419 515 1060 2390
2020-07-20 09:30 2.17 303 4920 (1950) 8 (1954) 463 51 65 100 121 222 419 515 1060 2390
2020-07-20 08:30 2.00 237 4920 (1950) 8 (1954) 463 51 65 100 121 222 419 515 1060 2390
2020-07-20 07:30 1.99 233 4920 (1950) 8 (1954) 463 51 65 100 121 222 419 515 1060 2390
2020-07-20 06:30 2.00 237 4920 (1950) 8 (1954) 463 51 65 100 121 222 419 515 1060 2390
2020-07-20 05:30 2.00 237 4920 (1950) 8 (1954) 463 51 65 100 121 222 419 515 1060 2390
2020-07-20 04:30 2.00 237 4920 (1950) 8 (1954) 463 51 65 100 121 222 419 515 1060 2390
2020-07-20 03:30 2.00 237 4920 (1950) 8 (1954) 463 51 65 100 121 222 419 515 1060 2390
2020-07-20 02:30 2.00 237 4920 (1950) 8 (1954) 463 51 65 100 121 222 419 515 1060 2390
2020-07-20 01:30 2.00 237 4920 (1950) 8 (1954) 463 51 65 100 121 222 419 515 1060 2390
2020-07-20 00:30 2.01 240 4920 (1950) 8 (1954) 463 51 65 100 121 222 419 515 1060 2390
2020-07-19 23:30 2.01 240 7290 (1950) 12 (1954) 587 52 69 98 126 225 425 521 1320 3120
2020-07-19 22:30 2.01 240 7290 (1950) 12 (1954) 587 52 69 98 126 225 425 521 1320 3120
2020-07-19 21:30 2.01 240 7290 (1950) 12 (1954) 587 52 69 98 126 225 425 521 1320 3120
2020-07-19 20:30 2.01 240 7290 (1950) 12 (1954) 587 52 69 98 126 225 425 521 1320 3120
2020-07-19 19:30 2.02 244 7290 (1950) 12 (1954) 587 52 69 98 126 225 425 521 1320 3120
2020-07-19 18:30 2.02 244 7290 (1950) 12 (1954) 587 52 69 98 126 225 425 521 1320 3120
2020-07-19 17:30 2.03 248 7290 (1950) 12 (1954) 587 52 69 98 126 225 425 521 1320 3120
2020-07-19 16:30 2.03 248 7290 (1950) 12 (1954) 587 52 69 98 126 225 425 521 1320 3120
2020-07-19 15:30 2.04 252 7290 (1950) 12 (1954) 587 52 69 98 126 225 425 521 1320 3120
2020-07-19 14:30 2.04 252 7290 (1950) 12 (1954) 587 52 69 98 126 225 425 521 1320 3120
2020-07-19 13:30 2.04 252 7290 (1950) 12 (1954) 587 52 69 98 126 225 425 521 1320 3120
2020-07-19 12:30 2.04 252 7290 (1950) 12 (1954) 587 52 69 98 126 225 425 521 1320 3120
2020-07-19 11:30 2.05 255 7290 (1950) 12 (1954) 587 52 69 98 126 225 425 521 1320 3120
2020-07-19 10:30 2.05 255 7290 (1950) 12 (1954) 587 52 69 98 126 225 425 521 1320 3120
2020-07-19 09:30 2.05 255 7290 (1950) 12 (1954) 587 52 69 98 126 225 425 521 1320 3120
2020-07-19 08:30 2.06 259 7290 (1950) 12 (1954) 587 52 69 98 126 225 425 521 1320 3120
2020-07-19 07:30 2.07 263 7290 (1950) 12 (1954) 587 52 69 98 126 225 425 521 1320 3120
2020-07-19 06:30 2.07 263 7290 (1950) 12 (1954) 587 52 69 98 126 225 425 521 1320 3120
2020-07-19 05:30 2.08 267 7290 (1950) 12 (1954) 587 52 69 98 126 225 425 521 1320 3120
2020-07-19 04:30 2.07 263 7290 (1950) 12 (1954) 587 52 69 98 126 225 425 521 1320 3120
2020-07-19 03:30 2.08 267 7290 (1950) 12 (1954) 587 52 69 98 126 225 425 521 1320 3120
2020-07-19 02:30 2.08 267 7290 (1950) 12 (1954) 587 52 69 98 126 225 425 521 1320 3120
2020-07-19 01:30 2.09 271 7290 (1950) 12 (1954) 587 52 69 98 126 225 425 521 1320 3120
2020-07-19 00:30 2.11 278 7290 (1950) 12 (1954) 587 52 69 98 126 225 425 521 1320 3120
2020-07-18 23:30 2.11 278 9830 (1958) 13 (1954) 601 48 70 96 108 236 430 512 846 3720
2020-07-18 22:30 2.12 282 9830 (1958) 13 (1954) 601 48 70 96 108 236 430 512 846 3720
2020-07-18 21:30 2.12 282 9830 (1958) 13 (1954) 601 48 70 96 108 236 430 512 846 3720
2020-07-18 20:30 2.14 290 9830 (1958) 13 (1954) 601 48 70 96 108 236 430 512 846 3720
2020-07-18 19:30 2.14 290 9830 (1958) 13 (1954) 601 48 70 96 108 236 430 512 846 3720
2020-07-18 18:30 2.15 294 9830 (1958) 13 (1954) 601 48 70 96 108 236 430 512 846 3720
2020-07-18 17:30 2.16 299 9830 (1958) 13 (1954) 601 48 70 96 108 236 430 512 846 3720
2020-07-18 16:30 2.17 303 9830 (1958) 13 (1954) 601 48 70 96 108 236 430 512 846 3720
2020-07-18 15:30 2.18 307 9830 (1958) 13 (1954) 601 48 70 96 108 236 430 512 846 3720
2020-07-18 14:30 2.18 307 9830 (1958) 13 (1954) 601 48 70 96 108 236 430 512 846 3720
2020-07-18 13:30 2.20 315 9830 (1958) 13 (1954) 601 48 70 96 108 236 430 512 846 3720
2020-07-18 12:30 2.20 315 9830 (1958) 13 (1954) 601 48 70 96 108 236 430 512 846 3720
2020-07-18 11:30 2.18 307 9830 (1958) 13 (1954) 601 48 70 96 108 236 430 512 846 3720
2020-07-18 10:30 2.18 307 9830 (1958) 13 (1954) 601 48 70 96 108 236 430 512 846 3720
2020-07-18 09:30 2.16 299 9830 (1958) 13 (1954) 601 48 70 96 108 236 430 512 846 3720
2020-07-18 08:30 2.14 290 9830 (1958) 13 (1954) 601 48 70 96 108 236 430 512 846 3720
2020-07-18 07:30 2.10 275 9830 (1958) 13 (1954) 601 48 70 96 108 236 430 512 846 3720
2020-07-18 06:30 2.07 263 9830 (1958) 13 (1954) 601 48 70 96 108 236 430 512 846 3720
2020-07-18 05:30 2.04 252 9830 (1958) 13 (1954) 601 48 70 96 108 236 430 512 846 3720
2020-07-18 04:30 2.01 240 9830 (1958) 13 (1954) 601 48 70 96 108 236 430 512 846 3720
2020-07-18 03:30 1.99 233 9830 (1958) 13 (1954) 601 48 70 96 108 236 430 512 846 3720
2020-07-18 02:30 1.98 229 9830 (1958) 13 (1954) 601 48 70 96 108 236 430 512 846 3720
2020-07-18 01:30 1.98 229 9830 (1958) 13 (1954) 601 48 70 96 108 236 430 512 846 3720
2020-07-18 00:30 1.97 226 9830 (1958) 13 (1954) 601 48 70 96 108 236 430 512 846 3720
2020-07-17 23:30 1.97 226 11700 (1958) 15 (1954) 634 48 74 106 131 242 453 546 924 2650
2020-07-17 22:30 1.98 229 11700 (1958) 15 (1954) 634 48 74 106 131 242 453 546 924 2650
2020-07-17 21:30 1.98 229 11700 (1958) 15 (1954) 634 48 74 106 131 242 453 546 924 2650
2020-07-17 20:30 1.98 229 11700 (1958) 15 (1954) 634 48 74 106 131 242 453 546 924 2650
2020-07-17 19:30 1.98 229 11700 (1958) 15 (1954) 634 48 74 106 131 242 453 546 924 2650
2020-07-17 18:30 1.98 229 11700 (1958) 15 (1954) 634 48 74 106 131 242 453 546 924 2650
2020-07-17 17:30 1.98 229 11700 (1958) 15 (1954) 634 48 74 106 131 242 453 546 924 2650
2020-07-17 16:30 1.99 233 11700 (1958) 15 (1954) 634 48 74 106 131 242 453 546 924 2650
2020-07-17 15:30 2.00 237 11700 (1958) 15 (1954) 634 48 74 106 131 242 453 546 924 2650
2020-07-17 14:30 2.00 237 11700 (1958) 15 (1954) 634 48 74 106 131 242 453 546 924 2650
2020-07-17 13:30 2.01 240 11700 (1958) 15 (1954) 634 48 74 106 131 242 453 546 924 2650
2020-07-17 12:30 2.01 240 11700 (1958) 15 (1954) 634 48 74 106 131 242 453 546 924 2650
2020-07-17 11:30 2.00 237 11700 (1958) 15 (1954) 634 48 74 106 131 242 453 546 924 2650
2020-07-17 10:30 2.00 237 11700 (1958) 15 (1954) 634 48 74 106 131 242 453 546 924 2650
2020-07-17 09:30 2.00 237 11700 (1958) 15 (1954) 634 48 74 106 131 242 453 546 924 2650
2020-07-17 08:30 2.00 237 11700 (1958) 15 (1954) 634 48 74 106 131 242 453 546 924 2650
2020-07-17 07:30 2.00 237 11700 (1958) 15 (1954) 634 48 74 106 131 242 453 546 924 2650
2020-07-17 06:30 2.00 237 11700 (1958) 15 (1954) 634 48 74 106 131 242 453 546 924 2650
2020-07-17 05:30 2.00 237 11700 (1958) 15 (1954) 634 48 74 106 131 242 453 546 924 2650
2020-07-17 04:30 2.00 237 11700 (1958) 15 (1954) 634 48 74 106 131 242 453 546 924 2650
2020-07-17 03:30 2.00 237 11700 (1958) 15 (1954) 634 48 74 106 131 242 453 546 924 2650
2020-07-17 02:30 2.00 237 11700 (1958) 15 (1954) 634 48 74 106 131 242 453 546 924 2650
2020-07-17 01:30 2.00 237 11700 (1958) 15 (1954) 634 48 74 106 131 242 453 546 924 2650
2020-07-17 00:30 1.99 233 11700 (1958) 15 (1954) 634 48 74 106 131 242 453 546 924 2650
2020-07-16 23:30 2.00 237 4700 (1992) 20 (1954) 499 56 72 101 123 253 475 550 799 2980
2020-07-16 22:30 2.00 237 4700 (1992) 20 (1954) 499 56 72 101 123 253 475 550 799 2980
2020-07-16 21:30 2.00 237 4700 (1992) 20 (1954) 499 56 72 101 123 253 475 550 799 2980
2020-07-16 20:30 2.00 237 4700 (1992) 20 (1954) 499 56 72 101 123 253 475 550 799 2980
2020-07-16 19:30 2.00 237 4700 (1992) 20 (1954) 499 56 72 101 123 253 475 550 799 2980
2020-07-16 18:30 2.00 237 4700 (1992) 20 (1954) 499 56 72 101 123 253 475 550 799 2980
2020-07-16 17:30 2.00 237 4700 (1992) 20 (1954) 499 56 72 101 123 253 475 550 799 2980
2020-07-16 16:30 2.00 237 4700 (1992) 20 (1954) 499 56 72 101 123 253 475 550 799 2980
2020-07-16 15:30 2.00 237 4700 (1992) 20 (1954) 499 56 72 101 123 253 475 550 799 2980
2020-07-16 14:30 2.01 240 4700 (1992) 20 (1954) 499 56 72 101 123 253 475 550 799 2980
2020-07-16 13:30 2.00 237 4700 (1992) 20 (1954) 499 56 72 101 123 253 475 550 799 2980
2020-07-16 12:30 2.01 240 4700 (1992) 20 (1954) 499 56 72 101 123 253 475 550 799 2980
2020-07-16 11:30 2.01 240 4700 (1992) 20 (1954) 499 56 72 101 123 253 475 550 799 2980
2020-07-16 10:30 2.01 240 4700 (1992) 20 (1954) 499 56 72 101 123 253 475 550 799 2980
2020-07-16 09:30 2.00 237 4700 (1992) 20 (1954) 499 56 72 101 123 253 475 550 799 2980
2020-07-16 08:30 2.01 240 4700 (1992) 20 (1954) 499 56 72 101 123 253 475 550 799 2980
2020-07-16 07:30 2.01 240 4700 (1992) 20 (1954) 499 56 72 101 123 253 475 550 799 2980
2020-07-16 06:30 2.01 240 4700 (1992) 20 (1954) 499 56 72 101 123 253 475 550 799 2980
2020-07-16 05:30 2.02 244 4700 (1992) 20 (1954) 499 56 72 101 123 253 475 550 799 2980
2020-07-16 04:30 2.02 244 4700 (1992) 20 (1954) 499 56 72 101 123 253 475 550 799 2980
2020-07-16 03:30 2.02 244 4700 (1992) 20 (1954) 499 56 72 101 123 253 475 550 799 2980
2020-07-16 02:30 2.02 244 4700 (1992) 20 (1954) 499 56 72 101 123 253 475 550 799 2980
2020-07-16 01:30 2.02 244 4700 (1992) 20 (1954) 499 56 72 101 123 253 475 550 799 2980
2020-07-16 00:30 2.02 244 4700 (1992) 20 (1954) 499 56 72 101 123 253 475 550 799 2980
2020-07-15 23:30 2.02 244 7810 (1924) 24 (1954) 451 53 77 109 126 257 516 574 817 1150
2020-07-15 22:30 2.02 244 7810 (1924) 24 (1954) 451 53 77 109 126 257 516 574 817 1150
2020-07-15 21:30 2.03 248 7810 (1924) 24 (1954) 451 53 77 109 126 257 516 574 817 1150
2020-07-15 20:30 2.03 248 7810 (1924) 24 (1954) 451 53 77 109 126 257 516 574 817 1150
2020-07-15 19:30 2.03 248 7810 (1924) 24 (1954) 451 53 77 109 126 257 516 574 817 1150
2020-07-15 18:30 2.03 248 7810 (1924) 24 (1954) 451 53 77 109 126 257 516 574 817 1150
2020-07-15 17:30 2.03 248 7810 (1924) 24 (1954) 451 53 77 109 126 257 516 574 817 1150
2020-07-15 16:30 2.03 248 7810 (1924) 24 (1954) 451 53 77 109 126 257 516 574 817 1150
2020-07-15 15:30 2.03 248 7810 (1924) 24 (1954) 451 53 77 109 126 257 516 574 817 1150
2020-07-15 14:30 2.03 248 7810 (1924) 24 (1954) 451 53 77 109 126 257 516 574 817 1150
2020-07-15 13:30 2.03 248 7810 (1924) 24 (1954) 451 53 77 109 126 257 516 574 817 1150
2020-07-15 12:30 2.03 248 7810 (1924) 24 (1954) 451 53 77 109 126 257 516 574 817 1150
2020-07-15 11:30 2.04 252 7810 (1924) 24 (1954) 451 53 77 109 126 257 516 574 817 1150
2020-07-15 10:30 2.04 252 7810 (1924) 24 (1954) 451 53 77 109 126 257 516 574 817 1150
2020-07-15 09:30 2.04 252 7810 (1924) 24 (1954) 451 53 77 109 126 257 516 574 817 1150
2020-07-15 08:30 2.04 252 7810 (1924) 24 (1954) 451 53 77 109 126 257 516 574 817 1150
2020-07-15 07:30 2.04 252 7810 (1924) 24 (1954) 451 53 77 109 126 257 516 574 817 1150
2020-07-15 06:30 2.04 252 7810 (1924) 24 (1954) 451 53 77 109 126 257 516 574 817 1150
2020-07-15 05:30 2.04 252 7810 (1924) 24 (1954) 451 53 77 109 126 257 516 574 817 1150
2020-07-15 04:30 2.05 255 7810 (1924) 24 (1954) 451 53 77 109 126 257 516 574 817 1150
2020-07-15 03:30 2.05 255 7810 (1924) 24 (1954) 451 53 77 109 126 257 516 574 817 1150
2020-07-15 02:30 2.04 252 7810 (1924) 24 (1954) 451 53 77 109 126 257 516 574 817 1150
2020-07-15 01:30 2.05 255 7810 (1924) 24 (1954) 451 53 77 109 126 257 516 574 817 1150
2020-07-15 00:30 2.05 255 7810 (1924) 24 (1954) 451 53 77 109 126 257 516 574 817 1150
2020-07-14 23:30 2.05 255 10500 (1924) 23 (1954) 529 58 76 115 130 252 552 674 894 1650
2020-07-14 22:30 2.05 255 10500 (1924) 23 (1954) 529 58 76 115 130 252 552 674 894 1650
2020-07-14 21:30 2.05 255 10500 (1924) 23 (1954) 529 58 76 115 130 252 552 674 894 1650
2020-07-14 20:30 2.05 255 10500 (1924) 23 (1954) 529 58 76 115 130 252 552 674 894 1650
2020-07-14 19:30 2.05 255 10500 (1924) 23 (1954) 529 58 76 115 130 252 552 674 894 1650
2020-07-14 18:30 2.06 259 10500 (1924) 23 (1954) 529 58 76 115 130 252 552 674 894 1650
2020-07-14 17:30 2.06 259 10500 (1924) 23 (1954) 529 58 76 115 130 252 552 674 894 1650
2020-07-14 16:30 2.06 259 10500 (1924) 23 (1954) 529 58 76 115 130 252 552 674 894 1650
2020-07-14 15:30 2.06 259 10500 (1924) 23 (1954) 529 58 76 115 130 252 552 674 894 1650
2020-07-14 14:30 2.06 259 10500 (1924) 23 (1954) 529 58 76 115 130 252 552 674 894 1650
2020-07-14 13:30 2.06 259 10500 (1924) 23 (1954) 529 58 76 115 130 252 552 674 894 1650
2020-07-14 12:30 2.06 259 10500 (1924) 23 (1954) 529 58 76 115 130 252 552 674 894 1650
2020-07-14 11:30 2.06 259 10500 (1924) 23 (1954) 529 58 76 115 130 252 552 674 894 1650
2020-07-14 10:30 2.07 263 10500 (1924) 23 (1954) 529 58 76 115 130 252 552 674 894 1650
2020-07-14 09:30 2.06 259 10500 (1924) 23 (1954) 529 58 76 115 130 252 552 674 894 1650
2020-07-14 08:30 2.06 259 10500 (1924) 23 (1954) 529 58 76 115 130 252 552 674 894 1650
2020-07-14 07:30 2.06 259 10500 (1924) 23 (1954) 529 58 76 115 130 252 552 674 894 1650
2020-07-14 06:30 2.07 263 10500 (1924) 23 (1954) 529 58 76 115 130 252 552 674 894 1650
2020-07-14 05:30 2.06 259 10500 (1924) 23 (1954) 529 58 76 115 130 252 552 674 894 1650
2020-07-14 04:30 2.07 263 10500 (1924) 23 (1954) 529 58 76 115 130 252 552 674 894 1650
2020-07-14 03:30 2.07 263 10500 (1924) 23 (1954) 529 58 76 115 130 252 552 674 894 1650
2020-07-14 02:30 2.07 263 10500 (1924) 23 (1954) 529 58 76 115 130 252 552 674 894 1650
2020-07-14 01:30 2.07 263 10500 (1924) 23 (1954) 529 58 76 115 130 252 552 674 894 1650
2020-07-14 00:30 2.07 263 10500 (1924) 23 (1954) 529 58 76 115 130 252 552 674 894 1650
2020-07-13 23:30 2.07 263 7620 (1992) 29 (1934) 639 52 66 114 131 275 589 708 1430 2370
2020-07-13 22:30 2.07 263 7620 (1992) 29 (1934) 639 52 66 114 131 275 589 708 1430 2370
2020-07-13 21:30 2.08 267 7620 (1992) 29 (1934) 639 52 66 114 131 275 589 708 1430 2370
2020-07-13 20:30 2.08 267 7620 (1992) 29 (1934) 639 52 66 114 131 275 589 708 1430 2370
2020-07-13 19:30 2.08 267 7620 (1992) 29 (1934) 639 52 66 114 131 275 589 708 1430 2370
2020-07-13 18:30 2.09 271 7620 (1992) 29 (1934) 639 52 66 114 131 275 589 708 1430 2370
2020-07-13 17:30 2.09 271 7620 (1992) 29 (1934) 639 52 66 114 131 275 589 708 1430 2370
2020-07-13 16:30 2.09 271 7620 (1992) 29 (1934) 639 52 66 114 131 275 589 708 1430 2370
2020-07-13 15:30 2.09 271 7620 (1992) 29 (1934) 639 52 66 114 131 275 589 708 1430 2370
2020-07-13 14:30 2.09 271 7620 (1992) 29 (1934) 639 52 66 114 131 275 589 708 1430 2370
2020-07-13 13:30 2.09 271 7620 (1992) 29 (1934) 639 52 66 114 131 275 589 708 1430 2370
2020-07-13 12:30 2.09 271 7620 (1992) 29 (1934) 639 52 66 114 131 275 589 708 1430 2370
2020-07-13 11:30 2.10 275 7620 (1992) 29 (1934) 639 52 66 114 131 275 589 708 1430 2370
2020-07-13 10:30 2.11 278 7620 (1992) 29 (1934) 639 52 66 114 131 275 589 708 1430 2370
2020-07-13 09:30 2.10 275 7620 (1992) 29 (1934) 639 52 66 114 131 275 589 708 1430 2370
2020-07-13 08:30 2.11 278 7620 (1992) 29 (1934) 639 52 66 114 131 275 589 708 1430 2370
2020-07-13 07:30 2.10 275 7620 (1992) 29 (1934) 639 52 66 114 131 275 589 708 1430 2370
2020-07-13 06:30 2.11 278 7620 (1992) 29 (1934) 639 52 66 114 131 275 589 708 1430 2370
2020-07-13 05:30 2.10 275 7620 (1992) 29 (1934) 639 52 66 114 131 275 589 708 1430 2370
2020-07-13 04:30 2.11 278 7620 (1992) 29 (1934) 639 52 66 114 131 275 589 708 1430 2370
2020-07-13 03:30 2.11 278 7620 (1992) 29 (1934) 639 52 66 114 131 275 589 708 1430 2370
2020-07-13 02:30 2.11 278 7620 (1992) 29 (1934) 639 52 66 114 131 275 589 708 1430 2370
2020-07-13 01:30 2.11 278 7620 (1992) 29 (1934) 639 52 66 114 131 275 589 708 1430 2370
2020-07-13 00:30 2.11 278 7620 (1992) 29 (1934) 639 52 66 114 131 275 589 708 1430 2370
2020-07-12 23:30 2.12 282 14200 (1992) 23 (1954) 825 55 70 108 126 279 666 817 1240 3720
2020-07-12 22:30 2.12 282 14200 (1992) 23 (1954) 825 55 70 108 126 279 666 817 1240 3720
2020-07-12 21:30 2.12 282 14200 (1992) 23 (1954) 825 55 70 108 126 279 666 817 1240 3720
2020-07-12 20:30 2.12 282 14200 (1992) 23 (1954) 825 55 70 108 126 279 666 817 1240 3720
2020-07-12 19:30 2.12 282 14200 (1992) 23 (1954) 825 55 70 108 126 279 666 817 1240 3720
2020-07-12 18:30 2.12 282 14200 (1992) 23 (1954) 825 55 70 108 126 279 666 817 1240 3720
2020-07-12 17:30 2.12 282 14200 (1992) 23 (1954) 825 55 70 108 126 279 666 817 1240 3720
2020-07-12 16:30 2.12 282 14200 (1992) 23 (1954) 825 55 70 108 126 279 666 817 1240 3720
2020-07-12 15:30 2.12 282 14200 (1992) 23 (1954) 825 55 70 108 126 279 666 817 1240 3720
2020-07-12 14:30 2.14 290 14200 (1992) 23 (1954) 825 55 70 108 126 279 666 817 1240 3720
2020-07-12 13:30 2.13 286 14200 (1992) 23 (1954) 825 55 70 108 126 279 666 817 1240 3720
2020-07-12 12:30 2.14 290 14200 (1992) 23 (1954) 825 55 70 108 126 279 666 817 1240 3720
2020-07-12 11:30 2.14 290 14200 (1992) 23 (1954) 825 55 70 108 126 279 666 817 1240 3720
2020-07-12 10:30 2.15 294 14200 (1992) 23 (1954) 825 55 70 108 126 279 666 817 1240 3720
2020-07-12 09:30 2.14 290 14200 (1992) 23 (1954) 825 55 70 108 126 279 666 817 1240 3720
2020-07-12 08:30 2.15 294 14200 (1992) 23 (1954) 825 55 70 108 126 279 666 817 1240 3720
2020-07-12 07:30 2.14 290 14200 (1992) 23 (1954) 825 55 70 108 126 279 666 817 1240 3720
2020-07-12 06:30 2.15 294 14200 (1992) 23 (1954) 825 55 70 108 126 279 666 817 1240 3720
2020-07-12 05:30 2.15 294 14200 (1992) 23 (1954) 825 55 70 108 126 279 666 817 1240 3720
2020-07-12 04:30 2.16 299 14200 (1992) 23 (1954) 825 55 70 108 126 279 666 817 1240 3720
2020-07-12 03:30 2.16 299 14200 (1992) 23 (1954) 825 55 70 108 126 279 666 817 1240 3720
2020-07-12 02:30 2.16 299 14200 (1992) 23 (1954) 825 55 70 108 126 279 666 817 1240 3720
2020-07-12 01:30 2.16 299 14200 (1992) 23 (1954) 825 55 70 108 126 279 666 817 1240 3720
2020-07-12 00:30 2.17 303 14200 (1992) 23 (1954) 825 55 70 108 126 279 666 817 1240 3720
2020-07-11 23:30 2.17 303 14100 (1992) 33 (1954) 874 55 69 111 131 295 636 792 2110 3470
2020-07-11 22:30 2.17 303 14100 (1992) 33 (1954) 874 55 69 111 131 295 636 792 2110 3470
2020-07-11 21:30 2.17 303 14100 (1992) 33 (1954) 874 55 69 111 131 295 636 792 2110 3470
2020-07-11 20:30 2.18 307 14100 (1992) 33 (1954) 874 55 69 111 131 295 636 792 2110 3470
2020-07-11 19:30 2.18 307 14100 (1992) 33 (1954) 874 55 69 111 131 295 636 792 2110 3470
2020-07-11 18:30 2.18 307 14100 (1992) 33 (1954) 874 55 69 111 131 295 636 792 2110 3470
2020-07-11 17:30 2.19 311 14100 (1992) 33 (1954) 874 55 69 111 131 295 636 792 2110 3470
2020-07-11 16:30 2.20 315 14100 (1992) 33 (1954) 874 55 69 111 131 295 636 792 2110 3470
2020-07-11 15:30 2.21 319 14100 (1992) 33 (1954) 874 55 69 111 131 295 636 792 2110 3470
2020-07-11 14:30 2.21 319 14100 (1992) 33 (1954) 874 55 69 111 131 295 636 792 2110 3470
2020-07-11 13:30 2.20 315 14100 (1992) 33 (1954) 874 55 69 111 131 295 636 792 2110 3470
2020-07-11 12:30 2.21 319 14100 (1992) 33 (1954) 874 55 69 111 131 295 636 792 2110 3470
2020-07-11 11:30 2.21 319 14100 (1992) 33 (1954) 874 55 69 111 131 295 636 792 2110 3470
2020-07-11 10:30 2.21 319 14100 (1992) 33 (1954) 874 55 69 111 131 295 636 792 2110 3470
2020-07-11 09:30 2.22 324 14100 (1992) 33 (1954) 874 55 69 111 131 295 636 792 2110 3470
2020-07-11 08:30 2.22 324 14100 (1992) 33 (1954) 874 55 69 111 131 295 636 792 2110 3470
2020-07-11 07:30 2.22 324 14100 (1992) 33 (1954) 874 55 69 111 131 295 636 792 2110 3470
2020-07-11 06:30 2.21 319 14100 (1992) 33 (1954) 874 55 69 111 131 295 636 792 2110 3470
2020-07-11 05:30 2.22 324 14100 (1992) 33 (1954) 874 55 69 111 131 295 636 792 2110 3470
2020-07-11 04:30 2.21 319 14100 (1992) 33 (1954) 874 55 69 111 131 295 636 792 2110 3470
2020-07-11 03:30 2.21 319 14100 (1992) 33 (1954) 874 55 69 111 131 295 636 792 2110 3470
2020-07-11 02:30 2.21 319 14100 (1992) 33 (1954) 874 55 69 111 131 295 636 792 2110 3470
2020-07-11 01:30 2.20 315 14100 (1992) 33 (1954) 874 55 69 111 131 295 636 792 2110 3470
2020-07-11 00:30 2.21 319 14100 (1992) 33 (1954) 874 55 69 111 131 295 636 792 2110 3470
2020-07-10 23:30 2.20 315 12600 (2015) 24 (1954) 758 57 81 111 139 309 664 888 1510 3670
2020-07-10 22:30 2.20 315 12600 (2015) 24 (1954) 758 57 81 111 139 309 664 888 1510 3670
2020-07-10 21:30 2.19 311 12600 (2015) 24 (1954) 758 57 81 111 139 309 664 888 1510 3670
2020-07-10 20:30 2.20 315 12600 (2015) 24 (1954) 758 57 81 111 139 309 664 888 1510 3670
2020-07-10 19:30 2.21 319 12600 (2015) 24 (1954) 758 57 81 111 139 309 664 888 1510 3670
2020-07-10 18:30 2.21 319 12600 (2015) 24 (1954) 758 57 81 111 139 309 664 888 1510 3670
2020-07-10 17:30 2.20 315 12600 (2015) 24 (1954) 758 57 81 111 139 309 664 888 1510 3670
2020-07-10 16:30 2.20 315 12600 (2015) 24 (1954) 758 57 81 111 139 309 664 888 1510 3670
2020-07-10 15:30 2.21 319 12600 (2015) 24 (1954) 758 57 81 111 139 309 664 888 1510 3670
2020-07-10 14:30 2.21 319 12600 (2015) 24 (1954) 758 57 81 111 139 309 664 888 1510 3670
2020-07-10 13:30 2.21 319 12600 (2015) 24 (1954) 758 57 81 111 139 309 664 888 1510 3670
2020-07-10 12:30 2.21 319 12600 (2015) 24 (1954) 758 57 81 111 139 309 664 888 1510 3670
2020-07-10 11:30 2.22 324 12600 (2015) 24 (1954) 758 57 81 111 139 309 664 888 1510 3670
2020-07-10 10:30 2.22 324 12600 (2015) 24 (1954) 758 57 81 111 139 309 664 888 1510 3670
2020-07-10 09:30 2.21 319 12600 (2015) 24 (1954) 758 57 81 111 139 309 664 888 1510 3670
2020-07-10 08:30 2.22 324 12600 (2015) 24 (1954) 758 57 81 111 139 309 664 888 1510 3670
2020-07-10 07:30 2.23 328 12600 (2015) 24 (1954) 758 57 81 111 139 309 664 888 1510 3670
2020-07-10 06:30 2.23 328 12600 (2015) 24 (1954) 758 57 81 111 139 309 664 888 1510 3670
2020-07-10 05:30 2.24 332 12600 (2015) 24 (1954) 758 57 81 111 139 309 664 888 1510 3670
2020-07-10 04:30 2.24 332 12600 (2015) 24 (1954) 758 57 81 111 139 309 664 888 1510 3670
2020-07-10 03:30 2.24 332 12600 (2015) 24 (1954) 758 57 81 111 139 309 664 888 1510 3670
2020-07-10 02:30 2.25 336 12600 (2015) 24 (1954) 758 57 81 111 139 309 664 888 1510 3670
2020-07-10 01:30 2.26 341 12600 (2015) 24 (1954) 758 57 81 111 139 309 664 888 1510 3670
2020-07-10 00:30 2.27 345 12600 (2015) 24 (1954) 758 57 81 111 139 309 664 888 1510 3670
2020-07-09 23:30 2.27 345 15700 (2015) 19 (1954) 911 59 85 113 141 327 715 816 1550 3220
2020-07-09 22:30 2.28 350 15700 (2015) 19 (1954) 911 59 85 113 141 327 715 816 1550 3220
2020-07-09 21:30 2.28 350 15700 (2015) 19 (1954) 911 59 85 113 141 327 715 816 1550 3220
2020-07-09 20:30 2.26 341 15700 (2015) 19 (1954) 911 59 85 113 141 327 715 816 1550 3220
2020-07-09 19:30 2.25 336 15700 (2015) 19 (1954) 911 59 85 113 141 327 715 816 1550 3220
2020-07-09 18:30 2.24 332 15700 (2015) 19 (1954) 911 59 85 113 141 327 715 816 1550 3220
2020-07-09 17:30 2.24 332 15700 (2015) 19 (1954) 911 59 85 113 141 327 715 816 1550 3220
2020-07-09 16:30 2.25 336 15700 (2015) 19 (1954) 911 59 85 113 141 327 715 816 1550 3220
2020-07-09 15:30 2.25 336 15700 (2015) 19 (1954) 911 59 85 113 141 327 715 816 1550 3220
2020-07-09 14:30 2.25 336 15700 (2015) 19 (1954) 911 59 85 113 141 327 715 816 1550 3220
2020-07-09 13:30 2.26 341 15700 (2015) 19 (1954) 911 59 85 113 141 327 715 816 1550 3220
2020-07-09 12:30 2.26 341 15700 (2015) 19 (1954) 911 59 85 113 141 327 715 816 1550 3220
2020-07-09 11:30 2.25 336 15700 (2015) 19 (1954) 911 59 85 113 141 327 715 816 1550 3220
2020-07-09 10:30 2.26 341 15700 (2015) 19 (1954) 911 59 85 113 141 327 715 816 1550 3220
2020-07-09 09:30 2.25 336 15700 (2015) 19 (1954) 911 59 85 113 141 327 715 816 1550 3220
2020-07-09 08:30 2.26 341 15700 (2015) 19 (1954) 911 59 85 113 141 327 715 816 1550 3220
2020-07-09 07:30 2.25 336 15700 (2015) 19 (1954) 911 59 85 113 141 327 715 816 1550 3220
2020-07-09 06:30 2.25 336 15700 (2015) 19 (1954) 911 59 85 113 141 327 715 816 1550 3220
2020-07-09 05:30 2.26 341 15700 (2015) 19 (1954) 911 59 85 113 141 327 715 816 1550 3220
2020-07-09 04:30 2.25 336 15700 (2015) 19 (1954) 911 59 85 113 141 327 715 816 1550 3220
2020-07-09 03:30 2.26 341 15700 (2015) 19 (1954) 911 59 85 113 141 327 715 816 1550 3220
2020-07-09 02:30 2.27 345 15700 (2015) 19 (1954) 911 59 85 113 141 327 715 816 1550 3220
2020-07-09 01:30 2.26 341 15700 (2015) 19 (1954) 911 59 85 113 141 327 715 816 1550 3220
2020-07-09 00:30 2.27 345 15700 (2015) 19 (1954) 911 59 85 113 141 327 715 816 1550 3220
2020-07-08 23:30 2.27 345 9560 (2015) 17 (1954) 801 59 88 125 149 327 729 873 1850 3970
2020-07-08 22:30 2.28 350 9560 (2015) 17 (1954) 801 59 88 125 149 327 729 873 1850 3970
2020-07-08 21:30 2.28 350 9560 (2015) 17 (1954) 801 59 88 125 149 327 729 873 1850 3970
2020-07-08 20:30 2.28 350 9560 (2015) 17 (1954) 801 59 88 125 149 327 729 873 1850 3970
2020-07-08 19:30 2.30 358 9560 (2015) 17 (1954) 801 59 88 125 149 327 729 873 1850 3970
2020-07-08 18:30 2.30 358 9560 (2015) 17 (1954) 801 59 88 125 149 327 729 873 1850 3970
2020-07-08 17:30 2.30 358 9560 (2015) 17 (1954) 801 59 88 125 149 327 729 873 1850 3970
2020-07-08 16:30 2.31 363 9560 (2015) 17 (1954) 801 59 88 125 149 327 729 873 1850 3970
2020-07-08 15:30 2.31 363 9560 (2015) 17 (1954) 801 59 88 125 149 327 729 873 1850 3970
2020-07-08 14:30 2.32 367 9560 (2015) 17 (1954) 801 59 88 125 149 327 729 873 1850 3970
2020-07-08 13:30 2.32 367 9560 (2015) 17 (1954) 801 59 88 125 149 327 729 873 1850 3970
2020-07-08 12:30 2.33 372 9560 (2015) 17 (1954) 801 59 88 125 149 327 729 873 1850 3970
2020-07-08 11:30 2.33 372 9560 (2015) 17 (1954) 801 59 88 125 149 327 729 873 1850 3970
2020-07-08 10:30 2.34 376 9560 (2015) 17 (1954) 801 59 88 125 149 327 729 873 1850 3970
2020-07-08 09:30 2.35 381 9560 (2015) 17 (1954) 801 59 88 125 149 327 729 873 1850 3970
2020-07-08 08:30 2.35 381 9560 (2015) 17 (1954) 801 59 88 125 149 327 729 873 1850 3970
2020-07-08 07:30 2.34 376 9560 (2015) 17 (1954) 801 59 88 125 149 327 729 873 1850 3970
2020-07-08 06:30 2.35 381 9560 (2015) 17 (1954) 801 59 88 125 149 327 729 873 1850 3970
2020-07-08 05:30 2.36 386 9560 (2015) 17 (1954) 801 59 88 125 149 327 729 873 1850 3970
2020-07-08 04:30 2.35 381 9560 (2015) 17 (1954) 801 59 88 125 149 327 729 873 1850 3970
2020-07-08 03:30 2.35 381 9560 (2015) 17 (1954) 801 59 88 125 149 327 729 873 1850 3970
2020-07-08 02:30 2.37 390 9560 (2015) 17 (1954) 801 59 88 125 149 327 729 873 1850 3970
2020-07-08 01:30 2.37 390 9560 (2015) 17 (1954) 801 59 88 125 149 327 729 873 1850 3970
2020-07-08 00:30 2.37 390 9560 (2015) 17 (1954) 801 59 88 125 149 327 729 873 1850 3970

A total of 733 rows are displayed for years 1924 through 2019.